Overview Statistics Trail Chart Weather Telemetry Raw packets
 

This is the latest recevied weather packets stored in our database for station/object KQ4WWD. If no packets are shown the sender has not sent any weather packets the latest 10 day(s).

<< 91 92 93 94 95 96 97 >>
Time Temp. Humidity Pressure Rain* Wind** Luminosity Snow
1787927523 30.56° C 80% 1017.6 hPa 0 mm - 711 W/m² -
1787927218 31.67° C 77% 1017.6 hPa 0 mm - 240 W/m² -
1787926913 31.67° C 77% 1017.5 hPa 0 mm - 557 W/m² -
1787926608 31.67° C 78% 1017.6 hPa 0 mm - 603 W/m² -
1787926306 31.11° C 79% 1017.6 hPa 0 mm - 570 W/m² -
1787926002 30.56° C 80% 1017.4 hPa 0 mm - 521 W/m² -
1787925696 30.56° C 80% 1017.5 hPa 0 mm - 498 W/m² -
1787925396 30° C 81% 1017.5 hPa 0 mm - 491 W/m² -
1787925096 30° C 82% 1017.4 hPa 0 mm - 460 W/m² -
1787924794 30° C 81% 1017.5 hPa 0 mm - 409 W/m² -
1787924494 30° C 80% 1017.4 hPa 0 mm - 379 W/m² -
1787924185 29.44° C 81% 1017.5 hPa 0 mm - 352 W/m² -
1787923880 28.89° C 81% 1017.5 hPa 0 mm - 327 W/m² -
1787923579 29.44° C 81% 1017.5 hPa 0 mm - 319 W/m² -
1787923276 29.44° C 80% 1017.5 hPa 0 mm - 298 W/m² -
1787922976 28.89° C 82% 1017.3 hPa 0 mm - 269 W/m² -
1787922676 28.89° C 81% 1017.3 hPa 0 mm - 66 W/m² -
1787922375 28.33° C 82% 1017.1 hPa 0 mm - 245 W/m² -
1787922073 28.33° C 83% 1017.4 hPa 0 mm - 239 W/m² -
1787921773 27.78° C 83% 1017.2 hPa 0 mm - 61 W/m² -
1787921473 27.78° C 84% 1017.5 hPa 0 mm - 75 W/m² -
1787921167 27.22° C 84% 1017.3 hPa 0 mm - 78 W/m² -
1787920863 27.22° C 85% 1017.4 hPa 0 mm - 54 W/m² -
1787920563 27.22° C 85% 1017.3 hPa 0 mm - 53 W/m² -
1787920257 26.67° C 87% 1017 hPa 0 mm - 122 W/m² -

* Rain latest hour (hover to see other rain measurements)
** Current wind speed in m/s (hover to see current wind gust speed)